View from above orbital plane
|
View from above satellite
|
Ground track
|
The orbit data is extracted from the following two-line orbital elements,
1 26382U 00032A 21016.71619302 .00000099 00000-0 00000-0 0 9993
2 26382 11.3456 30.2909 0004930 323.2037 223.6432 1.00090678 75131
Epoch (UTC): | 16 January 2021 17:11:19 |
Eccentricity: | 0.0004930 |
inclination: | 11.3456° |
perigee height: | 35816 km |
apogee height: | 35858 km |
right ascension of ascending node: | 30.2909° |
argument of perigee: | 323.2037° |
revolutions per day: | 1.00090678 |
mean anomaly at epoch: | 223.6432° |
orbit number at epoch: | 7513 |
The dashed part of the orbit path shows where the satellite is in the earth's shadow,
|
|